Weather History for Victoria, TX

Change the Weather History Date:

Wednesday, July 24, 2013

  Actual Average Record
Temperature  
Mean Temperature 85 °F 84 °F  
Max Temperature 94 °F 94 °F 107 °F (1934)
Min Temperature 76 °F 74 °F 64 °F (1915)
Degree Days  
Heating Degree Days 0 0  
Month to date heating degree days 0 0  
Since 1 June heating degree days 0 0  
Since 1 July heating degree days 0 0  
Cooling Degree Days 20 19  
Month to date cooling degree days 461 451  
Year to date cooling degree days 1687 1618  
Since 1 June cooling degree days 1053 959  
Growing Degree Days 34 (Base 50)    
Moisture  
Dew Point 74 °F    
Average Humidity 73    
Maximum Humidity 100    
Minimum Humidity 46    
Precipitation  
Precipitation 0.00 in 0.11 in 1.97 in (1987)
Month to date precipitation 3.48 3.39  
Year to date precipitation 13.04 23.23  
Snow  
Snow 0.00 in - - ()
Month to date snowfall 0.0  
Since 1 June snowfall 0.0  
Since 1 July snowfall 0.0  
Snow Depth 0.00 in    
Sea Level Pressure  
Sea Level Pressure 29.95 in    
Wind  
Wind Speed 9 mph (South)    
Max Wind Speed 17 mph    
Max Gust Speed 23 mph    
Visibility 10 miles    
Events      
T = Trace of Precipitation, MM = Missing Value Source: NWS Daily Summary

Daily Weather History Graph

Daily Weather History Graph

Search for Another Location

Airport:

Trip Planner

Search our weather history database for the weather conditions in past years. The results will help you decide how hot, cold, wet, or windy it might be!

Date:

Astronomy

Jul. 24, 2013 Rise Set
Actual Time 6:44 AM CDT 8:23 PM CDT
Civil Twilight 6:18 AM CDT 8:49 PM CDT
Nautical Twilight 5:47 AM CDT 9:20 PM CDT
Astronomical Twilight 5:14 AM CDT 9:53 PM CDT
Moon 9:49 PM CDT (7/24) 8:50 AM CDT (7/24)
Length of Visible Light 14h 31m
Length of Day
13h 39m
Waning Gibbous, 94% of the Moon is Illuminated
Jul 24
Waning Gibbous
Jul 29
Last Quarter
Aug 6
New
Aug 14
First Quarter
Aug 20
Full

Hourly Weather History & Observations

Time (CDT) Temp. Heat Index Dew Point Humidity Pressure Visibility Wind Dir Wind Speed Gust Speed Precip Events Conditions
12:51 AM 78.1 °F - 75.9 °F 93% 29.94 in 10.0 mi South 8.1 mph - N/A   Clear
1:51 AM 78.1 °F - 75.0 °F 90% 29.94 in 10.0 mi South 9.2 mph - N/A   Clear
2:51 AM 78.1 °F - 75.0 °F 90% 29.92 in 10.0 mi South 8.1 mph - N/A   Clear
3:51 AM 77.0 °F - 75.0 °F 94% 29.94 in 10.0 mi South 5.8 mph - N/A   Clear
4:36 AM 77.0 °F - 75.2 °F 94% 29.96 in 10.0 mi Calm Calm - N/A   Mostly Cloudy
4:51 AM 77.0 °F - 75.0 °F 94% 29.96 in 10.0 mi South 4.6 mph - N/A   Overcast
5:51 AM 75.9 °F - 75.0 °F 97% 29.96 in 10.0 mi South 3.5 mph - N/A   Overcast
6:16 AM - - - N/A% 29.96 in 10.0 mi South 4.6 mph - N/A   Scattered Clouds
6:51 AM 75.9 °F - 75.0 °F 97% 29.96 in 10.0 mi South 5.8 mph - N/A   Clear
7:51 AM 78.1 °F - 75.9 °F 93% 29.97 in 10.0 mi South 5.8 mph - N/A   Clear
8:51 AM 82.9 °F 92.8 °F 78.1 °F 85% 29.98 in 10.0 mi South 9.2 mph - N/A   Partly Cloudy
9:12 AM 82.4 °F 90.9 °F 77.0 °F 84% 29.99 in 10.0 mi South 11.5 mph - N/A   Mostly Cloudy
9:33 AM 84.2 °F 92.3 °F 75.2 °F 74% 29.98 in 10.0 mi South 13.8 mph - N/A   Scattered Clouds
9:51 AM 84.9 °F 94.1 °F 75.9 °F 74% 29.98 in 10.0 mi South 13.8 mph - N/A   Mostly Cloudy
10:07 AM 86.0 °F 95.1 °F 75.2 °F 70% 29.98 in 10.0 mi South 16.1 mph - N/A   Scattered Clouds
10:51 AM 88.0 °F 95.6 °F 73.0 °F 61% 29.99 in 10.0 mi South 12.7 mph - N/A   Partly Cloudy
11:51 AM 90.0 °F 99.0 °F 73.9 °F 59% 29.99 in 10.0 mi SSW 9.2 mph - N/A   Scattered Clouds
12:51 PM 91.0 °F 99.3 °F 73.0 °F 55% 29.99 in 10.0 mi South 8.1 mph - N/A   Scattered Clouds
1:51 PM 91.9 °F 99.5 °F 72.0 °F 52% 29.96 in 10.0 mi South 9.2 mph - N/A   Clear
2:51 PM 93.0 °F 99.0 °F 70.0 °F 47% 29.93 in 10.0 mi SW 8.1 mph - N/A   Clear
3:51 PM 91.9 °F 100.7 °F 73.0 °F 54% 29.92 in 10.0 mi South 6.9 mph - N/A   Partly Cloudy
4:51 PM 91.9 °F 100.7 °F 73.0 °F 54% 29.90 in 10.0 mi South 15.0 mph - N/A   Clear
5:51 PM 90.0 °F 100.2 °F 75.0 °F 61% 29.89 in 10.0 mi South 13.8 mph - N/A   Clear
6:51 PM 88.0 °F 96.5 °F 73.9 °F 63% 29.89 in 10.0 mi South 16.1 mph - N/A   Clear
7:51 PM 84.0 °F 91.2 °F 73.9 °F 72% 29.90 in 10.0 mi SSE 10.4 mph - N/A   Clear
8:51 PM 81.0 °F 86.2 °F 73.9 °F 79% 29.92 in 10.0 mi SSE 9.2 mph - N/A   Clear
9:51 PM 78.1 °F - 73.9 °F 87% 29.95 in 10.0 mi SE 6.9 mph - N/A   Clear
10:51 PM 75.9 °F - 73.9 °F 94% 29.96 in 10.0 mi SSE 5.8 mph - N/A   Clear
11:51 PM 75.9 °F - 73.9 °F 94% 29.97 in 10.0 mi South 4.6 mph - N/A   Clear